owner,sensor,date,latitude,longitude,air_pressure(mBar),qcFlag 
COMPS,ioos:station:USF.COMPS:C10:1,2010-12-01T00:00:00Z,27.1690,-82.9260,1016.3,1111122 
COMPS,ioos:station:USF.COMPS:C10:1,2010-12-01T00:20:00Z,27.1690,-82.9260,1016.7,1111122 
COMPS,ioos:station:USF.COMPS:C10:1,2010-12-01T00:40:00Z,27.1690,-82.9260,1016.7,1111122 
COMPS,ioos:station:USF.COMPS:C10:1,2010-12-01T01:00:00Z,27.1690,-82.9260,1017.0,1111122 
COMPS,ioos:station:USF.COMPS:C10:1,2010-12-01T01:20:00Z,27.1690,-82.9260,1017.4,1111122 
COMPS,ioos:station:USF.COMPS:C10:1,2010-12-01T01:40:00Z,27.1690,-82.9260,1017.6,1111122 
COMPS,ioos:station:USF.COMPS:C10:1,2010-12-01T02:00:00Z,27.1690,-82.9260,1017.6,1111122 
COMPS,ioos:station:USF.COMPS:C10:1,2010-12-01T02:20:00Z,27.1690,-82.9260,1017.5,1111122 
COMPS,ioos:station:USF.COMPS:C10:1,2010-12-01T02:40:00Z,27.1690,-82.9260,1017.5,1111122 
COMPS,ioos:station:USF.COMPS:C10:1,2010-12-01T03:00:00Z,27.1690,-82.9260,1017.8,1111122 
COMPS,ioos:station:USF.COMPS:C10:1,2010-12-01T03:20:00Z,27.1690,-82.9260,1017.8,1111122 
COMPS,ioos:station:USF.COMPS:C10:1,2010-12-01T03:40:00Z,27.1690,-82.9260,1017.5,1111122 
COMPS,ioos:station:USF.COMPS:C10:1,2010-12-01T04:00:00Z,27.1690,-82.9260,1017.6,1111122 
COMPS,ioos:station:USF.COMPS:C10:1,2010-12-01T04:20:00Z,27.1690,-82.9260,1017.6,1111122 
COMPS,ioos:station:USF.COMPS:C10:1,2010-12-01T04:40:00Z,27.1690,-82.9260,1017.6,1111122 
COMPS,ioos:station:USF.COMPS:C10:1,2010-12-01T05:00:00Z,27.1690,-82.9260,1017.5,1111122 
COMPS,ioos:station:USF.COMPS:C10:1,2010-12-01T05:20:00Z,27.1690,-82.9260,1017.3,1111122 
COMPS,ioos:station:USF.COMPS:C10:1,2010-12-01T05:40:00Z,27.1690,-82.9260,1017.2,1111122 
COMPS,ioos:station:USF.COMPS:C10:1,2010-12-01T06:00:00Z,27.1690,-82.9260,1017.1,1111122 
COMPS,ioos:station:USF.COMPS:C10:1,2010-12-01T06:20:00Z,27.1690,-82.9260,1016.9,1111122 
COMPS,ioos:station:USF.COMPS:C10:1,2010-12-01T06:40:00Z,27.1690,-82.9260,1016.9,1111122 
COMPS,ioos:station:USF.COMPS:C10:1,2010-12-01T07:00:00Z,27.1690,-82.9260,1016.5,1111122 
COMPS,ioos:station:USF.COMPS:C10:1,2010-12-01T07:20:00Z,27.1690,-82.9260,1016.3,1111122 
COMPS,ioos:station:USF.COMPS:C10:1,2010-12-01T07:40:00Z,27.1690,-82.9260,1016.3,1111122 
COMPS,ioos:station:USF.COMPS:C10:1,2010-12-01T08:00:00Z,27.1690,-82.9260,1016.3,1111122 
COMPS,ioos:station:USF.COMPS:C10:1,2010-12-01T08:20:00Z,27.1690,-82.9260,1016.3,1111122 
COMPS,ioos:station:USF.COMPS:C10:1,2010-12-01T08:40:00Z,27.1690,-82.9260,1017.2,1111122 
COMPS,ioos:station:USF.COMPS:C10:1,2010-12-01T09:00:00Z,27.1690,-82.9260,1017.2,1111122 
COMPS,ioos:station:USF.COMPS:C10:1,2010-12-01T09:20:00Z,27.1690,-82.9260,1017.4,1111122 
COMPS,ioos:station:USF.COMPS:C10:1,2010-12-01T09:40:00Z,27.1690,-82.9260,1017.4,1111122 
COMPS,ioos:station:USF.COMPS:C10:1,2010-12-01T10:00:00Z,27.1690,-82.9260,1017.8,1111122 
COMPS,ioos:station:USF.COMPS:C10:1,2010-12-01T10:20:00Z,27.1690,-82.9260,1017.8,1111122 
COMPS,ioos:station:USF.COMPS:C10:1,2010-12-01T10:40:00Z,27.1690,-82.9260,1018.3,1111122 
COMPS,ioos:station:USF.COMPS:C10:1,2010-12-01T11:00:00Z,27.1690,-82.9260,1018.3,1111122 
COMPS,ioos:station:USF.COMPS:C10:1,2010-12-01T11:20:00Z,27.1690,-82.9260,1018.7,1111122 
COMPS,ioos:station:USF.COMPS:C10:1,2010-12-01T11:40:00Z,27.1690,-82.9260,1018.7,1111122 
COMPS,ioos:station:USF.COMPS:C10:1,2010-12-01T13:00:00Z,27.1690,-82.9260,1019.8,1111122 
COMPS,ioos:station:USF.COMPS:C10:1,2010-12-01T13:20:00Z,27.1690,-82.9260,1019.6,1111122 
COMPS,ioos:station:USF.COMPS:C10:1,2010-12-01T13:40:00Z,27.1690,-82.9260,1020.1,1111122 
COMPS,ioos:station:USF.COMPS:C10:1,2010-12-01T15:00:00Z,27.1690,-82.9260,1021.2,1111122 
COMPS,ioos:station:USF.COMPS:C10:1,2010-12-01T15:20:00Z,27.1690,-82.9260,1021.9,1111122 
COMPS,ioos:station:USF.COMPS:C10:1,2010-12-01T15:40:00Z,27.1690,-82.9260,1022.1,1111122 
COMPS,ioos:station:USF.COMPS:C10:1,2010-12-01T16:00:00Z,27.1690,-82.9260,1022.1,1111122 
COMPS,ioos:station:USF.COMPS:C10:1,2010-12-01T16:20:00Z,27.1690,-82.9260,1022.0,1111122 
COMPS,ioos:station:USF.COMPS:C10:1,2010-12-01T16:40:00Z,27.1690,-82.9260,1021.6,1111122 
COMPS,ioos:station:USF.COMPS:C10:1,2010-12-01T17:00:00Z,27.1690,-82.9260,1021.6,1111122 
COMPS,ioos:station:USF.COMPS:C10:1,2010-12-01T17:20:00Z,27.1690,-82.9260,1021.4,1111122 
COMPS,ioos:station:USF.COMPS:C10:1,2010-12-01T17:40:00Z,27.1690,-82.9260,1021.0,1111122 
COMPS,ioos:station:USF.COMPS:C10:1,2010-12-01T18:00:00Z,27.1690,-82.9260,1021.0,1111122 
COMPS,ioos:station:USF.COMPS:C10:1,2010-12-01T18:20:00Z,27.1690,-82.9260,1020.5,1111122 
COMPS,ioos:station:USF.COMPS:C10:1,2010-12-01T18:40:00Z,27.1690,-82.9260,1020.1,1111122 
COMPS,ioos:station:USF.COMPS:C10:1,2010-12-01T19:00:00Z,27.1690,-82.9260,1020.1,1111122 
COMPS,ioos:station:USF.COMPS:C10:1,2010-12-01T19:20:00Z,27.1690,-82.9260,1019.6,1111122 
COMPS,ioos:station:USF.COMPS:C10:1,2010-12-01T19:40:00Z,27.1690,-82.9260,1019.8,1111122 
COMPS,ioos:station:USF.COMPS:C10:1,2010-12-01T20:00:00Z,27.1690,-82.9260,1019.8,1111122 
COMPS,ioos:station:USF.COMPS:C10:1,2010-12-01T20:20:00Z,27.1690,-82.9260,1019.9,1111122 
COMPS,ioos:station:USF.COMPS:C10:1,2010-12-01T20:40:00Z,27.1690,-82.9260,1019.9,1111122 
COMPS,ioos:station:USF.COMPS:C10:1,2010-12-01T21:00:00Z,27.1690,-82.9260,1019.9,1111122 
COMPS,ioos:station:USF.COMPS:C10:1,2010-12-01T21:20:00Z,27.1690,-82.9260,1020.1,1111122 
COMPS,ioos:station:USF.COMPS:C10:1,2010-12-01T21:40:00Z,27.1690,-82.9260,1020.1,1111122 
COMPS,ioos:station:USF.COMPS:C10:1,2010-12-01T22:00:00Z,27.1690,-82.9260,1020.1,1111122 
COMPS,ioos:station:USF.COMPS:C10:1,2010-12-01T22:20:00Z,27.1690,-82.9260,1020.0,1111122 
COMPS,ioos:station:USF.COMPS:C10:1,2010-12-01T22:40:00Z,27.1690,-82.9260,1020.3,1111122 
COMPS,ioos:station:USF.COMPS:C10:1,2010-12-01T23:00:00Z,27.1690,-82.9260,1020.3,1111122 
COMPS,ioos:station:USF.COMPS:C10:1,2010-12-01T23:20:00Z,27.1690,-82.9260,1020.7,1111122 
COMPS,ioos:station:USF.COMPS:C10:1,2010-12-01T23:40:00Z,27.1690,-82.9260,1020.5,1111122 
COMPS,ioos:station:USF.COMPS:C10:1,2010-12-02T00:00:00Z,27.1690,-82.9260,1020.5,1111122 
COMPS,ioos:station:USF.COMPS:C10:1,2010-12-02T00:20:00Z,27.1690,-82.9260,1020.9,1111122 
COMPS,ioos:station:USF.COMPS:C10:1,2010-12-02T00:40:00Z,27.1690,-82.9260,1020.9,1111122 
COMPS,ioos:station:USF.COMPS:C10:1,2010-12-02T01:00:00Z,27.1690,-82.9260,1020.9,1111122 
COMPS,ioos:station:USF.COMPS:C10:1,2010-12-02T01:20:00Z,27.1690,-82.9260,1020.9,1111122 
COMPS,ioos:station:USF.COMPS:C10:1,2010-12-02T01:40:00Z,27.1690,-82.9260,1021.3,1111122 
COMPS,ioos:station:USF.COMPS:C10:1,2010-12-02T02:00:00Z,27.1690,-82.9260,1021.3,1111122 
COMPS,ioos:station:USF.COMPS:C10:1,2010-12-02T02:20:00Z,27.1690,-82.9260,1021.2,1111122 
COMPS,ioos:station:USF.COMPS:C10:1,2010-12-02T02:40:00Z,27.1690,-82.9260,1021.4,1111122 
COMPS,ioos:station:USF.COMPS:C10:1,2010-12-02T03:00:00Z,27.1690,-82.9260,1021.4,1111122 
COMPS,ioos:station:USF.COMPS:C10:1,2010-12-02T03:20:00Z,27.1690,-82.9260,1021.4,1111122 
COMPS,ioos:station:USF.COMPS:C10:1,2010-12-02T03:40:00Z,27.1690,-82.9260,1021.6,1111122 
COMPS,ioos:station:USF.COMPS:C10:1,2010-12-02T04:00:00Z,27.1690,-82.9260,1021.6,1111122 
COMPS,ioos:station:USF.COMPS:C10:1,2010-12-02T04:20:00Z,27.1690,-82.9260,1021.0,1111122 
COMPS,ioos:station:USF.COMPS:C10:1,2010-12-02T04:40:00Z,27.1690,-82.9260,1021.2,1111122 
COMPS,ioos:station:USF.COMPS:C10:1,2010-12-02T05:00:00Z,27.1690,-82.9260,1021.2,1111122 
COMPS,ioos:station:USF.COMPS:C10:1,2010-12-02T05:20:00Z,27.1690,-82.9260,1021.2,1111122 
COMPS,ioos:station:USF.COMPS:C10:1,2010-12-02T05:40:00Z,27.1690,-82.9260,1021.4,1111122 
COMPS,ioos:station:USF.COMPS:C10:1,2010-12-02T06:00:00Z,27.1690,-82.9260,1021.4,1111122 
COMPS,ioos:station:USF.COMPS:C10:1,2010-12-02T06:20:00Z,27.1690,-82.9260,1021.1,1111122 
COMPS,ioos:station:USF.COMPS:C10:1,2010-12-02T06:40:00Z,27.1690,-82.9260,1021.3,1111122 
COMPS,ioos:station:USF.COMPS:C10:1,2010-12-02T07:00:00Z,27.1690,-82.9260,1021.3,1111122 
COMPS,ioos:station:USF.COMPS:C10:1,2010-12-02T07:20:00Z,27.1690,-82.9260,1021.2,1111122 
COMPS,ioos:station:USF.COMPS:C10:1,2010-12-02T07:40:00Z,27.1690,-82.9260,1021.2,1111122 
COMPS,ioos:station:USF.COMPS:C10:1,2010-12-02T08:00:00Z,27.1690,-82.9260,1021.2,1111122 
COMPS,ioos:station:USF.COMPS:C10:1,2010-12-02T08:20:00Z,27.1690,-82.9260,1021.3,1111122 
COMPS,ioos:station:USF.COMPS:C10:1,2010-12-02T08:40:00Z,27.1690,-82.9260,1021.8,1111122 
COMPS,ioos:station:USF.COMPS:C10:1,2010-12-02T09:00:00Z,27.1690,-82.9260,1021.8,1111122 
COMPS,ioos:station:USF.COMPS:C10:1,2010-12-03T04:00:00Z,27.1690,-82.9260,1021.8,1111122 
COMPS,ioos:station:USF.COMPS:C10:1,2010-12-03T04:20:00Z,27.1690,-82.9260,1021.8,1111122 
COMPS,ioos:station:USF.COMPS:C10:1,2010-12-03T04:40:00Z,27.1690,-82.9260,1021.6,1111122 
COMPS,ioos:station:USF.COMPS:C10:1,2010-12-03T05:00:00Z,27.1690,-82.9260,1021.6,1111122 
COMPS,ioos:station:USF.COMPS:C10:1,2010-12-03T05:20:00Z,27.1690,-82.9260,1021.5,1111122 
COMPS,ioos:station:USF.COMPS:C10:1,2010-12-03T05:40:00Z,27.1690,-82.9260,1021.0,1111122 
COMPS,ioos:station:USF.COMPS:C10:1,2010-12-03T06:00:00Z,27.1690,-82.9260,1021.0,1111122 
COMPS,ioos:station:USF.COMPS:C10:1,2010-12-03T06:20:00Z,27.1690,-82.9260,1020.8,1111122 
COMPS,ioos:station:USF.COMPS:C10:1,2010-12-03T06:40:00Z,27.1690,-82.9260,1020.7,1111122 
COMPS,ioos:station:USF.COMPS:C10:1,2010-12-03T07:00:00Z,27.1690,-82.9260,1020.7,1111122 
COMPS,ioos:station:USF.COMPS:C10:1,2010-12-03T07:20:00Z,27.1690,-82.9260,1020.9,1111122 
COMPS,ioos:station:USF.COMPS:C10:1,2010-12-03T07:40:00Z,27.1690,-82.9260,1020.9,1111122 
COMPS,ioos:station:USF.COMPS:C10:1,2010-12-03T08:00:00Z,27.1690,-82.9260,1020.9,1111122 
COMPS,ioos:station:USF.COMPS:C10:1,2010-12-03T08:20:00Z,27.1690,-82.9260,1020.9,1111122 
COMPS,ioos:station:USF.COMPS:C10:1,2010-12-03T08:40:00Z,27.1690,-82.9260,1020.7,1111122 
COMPS,ioos:station:USF.COMPS:C10:1,2010-12-03T09:00:00Z,27.1690,-82.9260,1020.7,1111122 
COMPS,ioos:station:USF.COMPS:C10:1,2010-12-03T09:20:00Z,27.1690,-82.9260,1020.7,1111122 
COMPS,ioos:station:USF.COMPS:C10:1,2010-12-03T09:40:00Z,27.1690,-82.9260,1020.7,1111122 
COMPS,ioos:station:USF.COMPS:C10:1,2010-12-03T10:00:00Z,27.1690,-82.9260,1020.7,1111122 
COMPS,ioos:station:USF.COMPS:C10:1,2010-12-03T10:20:00Z,27.1690,-82.9260,1020.6,1111122 
COMPS,ioos:station:USF.COMPS:C10:1,2010-12-03T10:40:00Z,27.1690,-82.9260,1020.9,1111122 
COMPS,ioos:station:USF.COMPS:C10:1,2010-12-03T11:00:00Z,27.1690,-82.9260,1020.9,1111122 
COMPS,ioos:station:USF.COMPS:C10:1,2010-12-03T11:20:00Z,27.1690,-82.9260,1020.9,1111122 
COMPS,ioos:station:USF.COMPS:C10:1,2010-12-03T11:40:00Z,27.1690,-82.9260,1021.2,1111122 
COMPS,ioos:station:USF.COMPS:C10:1,2010-12-03T12:00:00Z,27.1690,-82.9260,1021.2,1111122 
COMPS,ioos:station:USF.COMPS:C10:1,2010-12-03T12:20:00Z,27.1690,-82.9260,1021.6,1111122 
COMPS,ioos:station:USF.COMPS:C10:1,2010-12-03T12:40:00Z,27.1690,-82.9260,1021.8,1111122 
COMPS,ioos:station:USF.COMPS:C10:1,2010-12-03T13:00:00Z,27.1690,-82.9260,1022.1,1111122 
COMPS,ioos:station:USF.COMPS:C10:1,2010-12-03T13:20:00Z,27.1690,-82.9260,1022.1,1111122 
COMPS,ioos:station:USF.COMPS:C10:1,2010-12-03T13:40:00Z,27.1690,-82.9260,1022.2,1111122 
COMPS,ioos:station:USF.COMPS:C10:1,2010-12-03T14:00:00Z,27.1690,-82.9260,1022.5,1111122 
COMPS,ioos:station:USF.COMPS:C10:1,2010-12-03T14:20:00Z,27.1690,-82.9260,1022.9,1111122 
COMPS,ioos:station:USF.COMPS:C10:1,2010-12-03T14:40:00Z,27.1690,-82.9260,1023.2,1111122 
COMPS,ioos:station:USF.COMPS:C10:1,2010-12-03T15:00:00Z,27.1690,-82.9260,1023.2,1111122 
COMPS,ioos:station:USF.COMPS:C10:1,2010-12-03T15:20:00Z,27.1690,-82.9260,1023.2,1111122 
COMPS,ioos:station:USF.COMPS:C10:1,2010-12-03T15:40:00Z,27.1690,-82.9260,1023.2,1111122 
COMPS,ioos:station:USF.COMPS:C10:1,2010-12-03T16:00:00Z,27.1690,-82.9260,1023.2,1111122 
COMPS,ioos:station:USF.COMPS:C10:1,2010-12-03T16:20:00Z,27.1690,-82.9260,1023.1,1111122 
COMPS,ioos:station:USF.COMPS:C10:1,2010-12-03T16:40:00Z,27.1690,-82.9260,1022.6,1111122 
COMPS,ioos:station:USF.COMPS:C10:1,2010-12-03T17:00:00Z,27.1690,-82.9260,1022.6,1111122 
COMPS,ioos:station:USF.COMPS:C10:1,2010-12-03T17:20:00Z,27.1690,-82.9260,1021.8,1111122 
COMPS,ioos:station:USF.COMPS:C10:1,2010-12-03T17:40:00Z,27.1690,-82.9260,1021.3,1111122 
COMPS,ioos:station:USF.COMPS:C10:1,2010-12-03T18:00:00Z,27.1690,-82.9260,1021.3,1111122 
COMPS,ioos:station:USF.COMPS:C10:1,2010-12-03T18:20:00Z,27.1690,-82.9260,1020.7,1111122 
COMPS,ioos:station:USF.COMPS:C10:1,2010-12-03T18:40:00Z,27.1690,-82.9260,1020.5,1111122 
COMPS,ioos:station:USF.COMPS:C10:1,2010-12-03T19:00:00Z,27.1690,-82.9260,1020.5,1111122 
COMPS,ioos:station:USF.COMPS:C10:1,2010-12-03T19:20:00Z,27.1690,-82.9260,1020.1,1111122 
COMPS,ioos:station:USF.COMPS:C10:1,2010-12-03T19:40:00Z,27.1690,-82.9260,1020.1,1111122 
COMPS,ioos:station:USF.COMPS:C10:1,2010-12-03T20:00:00Z,27.1690,-82.9260,1020.1,1111122 
COMPS,ioos:station:USF.COMPS:C10:1,2010-12-03T20:20:00Z,27.1690,-82.9260,1019.8,1111122 
COMPS,ioos:station:USF.COMPS:C10:1,2010-12-03T20:40:00Z,27.1690,-82.9260,1020.0,1111122 
COMPS,ioos:station:USF.COMPS:C10:1,2010-12-03T21:00:00Z,27.1690,-82.9260,1020.0,1111122 
COMPS,ioos:station:USF.COMPS:C10:1,2010-12-03T21:20:00Z,27.1690,-82.9260,1020.2,1111122 
COMPS,ioos:station:USF.COMPS:C10:1,2010-12-03T21:40:00Z,27.1690,-82.9260,1020.2,1111122 
COMPS,ioos:station:USF.COMPS:C10:1,2010-12-03T22:00:00Z,27.1690,-82.9260,1020.3,1111122 
COMPS,ioos:station:USF.COMPS:C10:1,2010-12-03T22:20:00Z,27.1690,-82.9260,1020.3,1111122 
COMPS,ioos:station:USF.COMPS:C10:1,2010-12-03T22:40:00Z,27.1690,-82.9260,1020.5,1111122 
COMPS,ioos:station:USF.COMPS:C10:1,2010-12-03T23:00:00Z,27.1690,-82.9260,1020.5,1111122 
COMPS,ioos:station:USF.COMPS:C10:1,2010-12-03T23:20:00Z,27.1690,-82.9260,1020.4,1111122 
COMPS,ioos:station:USF.COMPS:C10:1,2010-12-03T23:40:00Z,27.1690,-82.9260,1020.5,1111122 
COMPS,ioos:station:USF.COMPS:C10:1,2010-12-04T00:00:00Z,27.1690,-82.9260,1020.5,1111122 
COMPS,ioos:station:USF.COMPS:C10:1,2010-12-04T00:20:00Z,27.1690,-82.9260,1020.7,1111122 
COMPS,ioos:station:USF.COMPS:C10:1,2010-12-04T00:40:00Z,27.1690,-82.9260,1020.7,1111122 
COMPS,ioos:station:USF.COMPS:C10:1,2010-12-04T01:00:00Z,27.1690,-82.9260,1020.7,1111122 
COMPS,ioos:station:USF.COMPS:C10:1,2010-12-04T01:20:00Z,27.1690,-82.9260,1020.9,1111122 
COMPS,ioos:station:USF.COMPS:C10:1,2010-12-04T01:40:00Z,27.1690,-82.9260,1021.1,1111122 
COMPS,ioos:station:USF.COMPS:C10:1,2010-12-04T02:00:00Z,27.1690,-82.9260,1021.1,1111122 
COMPS,ioos:station:USF.COMPS:C10:1,2010-12-04T02:20:00Z,27.1690,-82.9260,1021.3,1111122 
COMPS,ioos:station:USF.COMPS:C10:1,2010-12-04T02:40:00Z,27.1690,-82.9260,1021.3,1111122 
COMPS,ioos:station:USF.COMPS:C10:1,2010-12-04T03:00:00Z,27.1690,-82.9260,1021.3,1111122 
COMPS,ioos:station:USF.COMPS:C10:1,2010-12-04T03:20:00Z,27.1690,-82.9260,1021.3,1111122 
COMPS,ioos:station:USF.COMPS:C10:1,2010-12-04T03:40:00Z,27.1690,-82.9260,1021.2,1111122 
COMPS,ioos:station:USF.COMPS:C10:1,2010-12-04T04:00:00Z,27.1690,-82.9260,1021.2,1111122 
COMPS,ioos:station:USF.COMPS:C10:1,2010-12-04T04:20:00Z,27.1690,-82.9260,1021.4,1111122 
COMPS,ioos:station:USF.COMPS:C10:1,2010-12-04T04:40:00Z,27.1690,-82.9260,1021.3,1111122 
COMPS,ioos:station:USF.COMPS:C10:1,2010-12-04T05:00:00Z,27.1690,-82.9260,1021.3,1111122 
COMPS,ioos:station:USF.COMPS:C10:1,2010-12-04T05:20:00Z,27.1690,-82.9260,1021.0,1111122 
COMPS,ioos:station:USF.COMPS:C10:1,2010-12-04T05:40:00Z,27.1690,-82.9260,1020.9,1111122 
COMPS,ioos:station:USF.COMPS:C10:1,2010-12-04T06:00:00Z,27.1690,-82.9260,1020.9,1111122 
COMPS,ioos:station:USF.COMPS:C10:1,2010-12-04T06:20:00Z,27.1690,-82.9260,1020.5,1111122 
COMPS,ioos:station:USF.COMPS:C10:1,2010-12-04T06:40:00Z,27.1690,-82.9260,1020.1,1111122 
COMPS,ioos:station:USF.COMPS:C10:1,2010-12-04T07:00:00Z,27.1690,-82.9260,1020.1,1111122 
COMPS,ioos:station:USF.COMPS:C10:1,2010-12-04T07:20:00Z,27.1690,-82.9260,1020.0,1111122 
COMPS,ioos:station:USF.COMPS:C10:1,2010-12-04T07:40:00Z,27.1690,-82.9260,1019.7,1111122 
COMPS,ioos:station:USF.COMPS:C10:1,2010-12-04T08:00:00Z,27.1690,-82.9260,1019.7,1111122 
COMPS,ioos:station:USF.COMPS:C10:1,2010-12-04T08:20:00Z,27.1690,-82.9260,1019.8,1111122 
COMPS,ioos:station:USF.COMPS:C10:1,2010-12-04T08:40:00Z,27.1690,-82.9260,1019.8,1111122 
COMPS,ioos:station:USF.COMPS:C10:1,2010-12-04T09:00:00Z,27.1690,-82.9260,1019.8,1111122 
COMPS,ioos:station:USF.COMPS:C10:1,2010-12-04T09:20:00Z,27.1690,-82.9260,1019.8,1111122 
COMPS,ioos:station:USF.COMPS:C10:1,2010-12-04T09:40:00Z,27.1690,-82.9260,1020.0,1111122 
COMPS,ioos:station:USF.COMPS:C10:1,2010-12-04T10:00:00Z,27.1690,-82.9260,1020.0,1111122 
COMPS,ioos:station:USF.COMPS:C10:1,2010-12-04T10:20:00Z,27.1690,-82.9260,1020.1,1111122 
COMPS,ioos:station:USF.COMPS:C10:1,2010-12-04T10:40:00Z,27.1690,-82.9260,1020.1,1111122 
COMPS,ioos:station:USF.COMPS:C10:1,2010-12-04T11:00:00Z,27.1690,-82.9260,1020.1,1111122 
COMPS,ioos:station:USF.COMPS:C10:1,2010-12-04T11:20:00Z,27.1690,-82.9260,1020.4,1111122 
COMPS,ioos:station:USF.COMPS:C10:1,2010-12-04T11:40:00Z,27.1690,-82.9260,1020.5,1111122 
COMPS,ioos:station:USF.COMPS:C10:1,2010-12-04T12:00:00Z,27.1690,-82.9260,1020.5,1111122 
COMPS,ioos:station:USF.COMPS:C10:1,2010-12-04T12:20:00Z,27.1690,-82.9260,1020.9,1111122 
COMPS,ioos:station:USF.COMPS:C10:1,2010-12-04T12:40:00Z,27.1690,-82.9260,1020.9,1111122 
COMPS,ioos:station:USF.COMPS:C10:1,2010-12-04T13:00:00Z,27.1690,-82.9260,1020.9,1111122 
COMPS,ioos:station:USF.COMPS:C10:1,2010-12-04T13:20:00Z,27.1690,-82.9260,1021.2,1111122 
COMPS,ioos:station:USF.COMPS:C10:1,2010-12-04T13:40:00Z,27.1690,-82.9260,1021.3,1111122 
COMPS,ioos:station:USF.COMPS:C10:1,2010-12-04T14:00:00Z,27.1690,-82.9260,1021.3,1111122 
COMPS,ioos:station:USF.COMPS:C10:1,2010-12-04T14:20:00Z,27.1690,-82.9260,1021.7,1111122 
COMPS,ioos:station:USF.COMPS:C10:1,2010-12-04T14:40:00Z,27.1690,-82.9260,1021.9,1111122 
COMPS,ioos:station:USF.COMPS:C10:1,2010-12-04T15:00:00Z,27.1690,-82.9260,1021.9,1111122 
COMPS,ioos:station:USF.COMPS:C10:1,2010-12-04T15:20:00Z,27.1690,-82.9260,1022.2,1111122 
COMPS,ioos:station:USF.COMPS:C10:1,2010-12-04T15:40:00Z,27.1690,-82.9260,1022.1,1111122 
COMPS,ioos:station:USF.COMPS:C10:1,2010-12-04T16:00:00Z,27.1690,-82.9260,1022.1,1111122 
COMPS,ioos:station:USF.COMPS:C10:1,2010-12-04T16:20:00Z,27.1690,-82.9260,1021.7,1111122 
COMPS,ioos:station:USF.COMPS:C10:1,2010-12-04T16:40:00Z,27.1690,-82.9260,1021.5,1111122 
COMPS,ioos:station:USF.COMPS:C10:1,2010-12-04T17:00:00Z,27.1690,-82.9260,1021.5,1111122 
COMPS,ioos:station:USF.COMPS:C10:1,2010-12-04T17:20:00Z,27.1690,-82.9260,1020.9,1111122 
COMPS,ioos:station:USF.COMPS:C10:1,2010-12-04T17:40:00Z,27.1690,-82.9260,1020.5,1111122 
COMPS,ioos:station:USF.COMPS:C10:1,2010-12-04T18:00:00Z,27.1690,-82.9260,1020.5,1111122 
COMPS,ioos:station:USF.COMPS:C10:1,2010-12-04T18:20:00Z,27.1690,-82.9260,1020.1,1111122 
COMPS,ioos:station:USF.COMPS:C10:1,2010-12-04T18:40:00Z,27.1690,-82.9260,1019.7,1111122 
COMPS,ioos:station:USF.COMPS:C10:1,2010-12-04T19:00:00Z,27.1690,-82.9260,1019.7,1111122 
COMPS,ioos:station:USF.COMPS:C10:1,2010-12-04T19:20:00Z,27.1690,-82.9260,1019.2,1111122 
COMPS,ioos:station:USF.COMPS:C10:1,2010-12-04T19:40:00Z,27.1690,-82.9260,1019.2,1111122 
COMPS,ioos:station:USF.COMPS:C10:1,2010-12-04T20:00:00Z,27.1690,-82.9260,1019.2,1111122 
COMPS,ioos:station:USF.COMPS:C10:1,2010-12-04T20:20:00Z,27.1690,-82.9260,1018.9,1111122 
COMPS,ioos:station:USF.COMPS:C10:1,2010-12-04T20:40:00Z,27.1690,-82.9260,1018.7,1111122 
COMPS,ioos:station:USF.COMPS:C10:1,2010-12-04T21:00:00Z,27.1690,-82.9260,1018.7,1111122 
COMPS,ioos:station:USF.COMPS:C10:1,2010-12-04T21:20:00Z,27.1690,-82.9260,1018.8,1111122 
COMPS,ioos:station:USF.COMPS:C10:1,2010-12-04T21:40:00Z,27.1690,-82.9260,1018.7,1111122 
COMPS,ioos:station:USF.COMPS:C10:1,2010-12-04T22:00:00Z,27.1690,-82.9260,1018.7,1111122 
COMPS,ioos:station:USF.COMPS:C10:1,2010-12-04T22:20:00Z,27.1690,-82.9260,1018.8,1111122 
COMPS,ioos:station:USF.COMPS:C10:1,2010-12-04T22:40:00Z,27.1690,-82.9260,1018.8,1111122 
COMPS,ioos:station:USF.COMPS:C10:1,2010-12-04T23:00:00Z,27.1690,-82.9260,1018.8,1111122 
COMPS,ioos:station:USF.COMPS:C10:1,2010-12-04T23:20:00Z,27.1690,-82.9260,1018.6,1111122 
COMPS,ioos:station:USF.COMPS:C10:1,2010-12-04T23:40:00Z,27.1690,-82.9260,1018.6,1111122 
COMPS,ioos:station:USF.COMPS:C10:1,2010-12-05T00:00:00Z,27.1690,-82.9260,1018.6,1111122 
COMPS,ioos:station:USF.COMPS:C10:1,2010-12-05T00:20:00Z,27.1690,-82.9260,1018.5,1111122 
COMPS,ioos:station:USF.COMPS:C10:1,2010-12-05T00:40:00Z,27.1690,-82.9260,1018.5,1111122 
COMPS,ioos:station:USF.COMPS:C10:1,2010-12-05T01:00:00Z,27.1690,-82.9260,1018.5,1111122 
COMPS,ioos:station:USF.COMPS:C10:1,2010-12-05T01:20:00Z,27.1690,-82.9260,1018.5,1111122 
COMPS,ioos:station:USF.COMPS:C10:1,2010-12-05T01:40:00Z,27.1690,-82.9260,1018.5,1111122 
COMPS,ioos:station:USF.COMPS:C10:1,2010-12-05T02:00:00Z,27.1690,-82.9260,1018.5,1111122 
COMPS,ioos:station:USF.COMPS:C10:1,2010-12-05T02:20:00Z,27.1690,-82.9260,1018.4,1111122 
COMPS,ioos:station:USF.COMPS:C10:1,2010-12-05T02:40:00Z,27.1690,-82.9260,1018.3,1111122 
COMPS,ioos:station:USF.COMPS:C10:1,2010-12-05T03:00:00Z,27.1690,-82.9260,1018.3,1111122 
COMPS,ioos:station:USF.COMPS:C10:1,2010-12-05T03:20:00Z,27.1690,-82.9260,1018.2,1111122 
COMPS,ioos:station:USF.COMPS:C10:1,2010-12-05T03:40:00Z,27.1690,-82.9260,1018.1,1111122 
COMPS,ioos:station:USF.COMPS:C10:1,2010-12-05T04:00:00Z,27.1690,-82.9260,1018.1,1111122 
COMPS,ioos:station:USF.COMPS:C10:1,2010-12-05T04:20:00Z,27.1690,-82.9260,1018.1,1111122 
COMPS,ioos:station:USF.COMPS:C10:1,2010-12-05T04:40:00Z,27.1690,-82.9260,1017.8,1111122 
COMPS,ioos:station:USF.COMPS:C10:1,2010-12-05T05:00:00Z,27.1690,-82.9260,1017.8,1111122 
COMPS,ioos:station:USF.COMPS:C10:1,2010-12-05T05:20:00Z,27.1690,-82.9260,1017.6,1111122 
COMPS,ioos:station:USF.COMPS:C10:1,2010-12-05T05:40:00Z,27.1690,-82.9260,1017.5,1111122 
COMPS,ioos:station:USF.COMPS:C10:1,2010-12-05T06:00:00Z,27.1690,-82.9260,1017.5,1111122 
COMPS,ioos:station:USF.COMPS:C10:1,2010-12-05T06:20:00Z,27.1690,-82.9260,1017.0,1111122 
COMPS,ioos:station:USF.COMPS:C10:1,2010-12-05T06:40:00Z,27.1690,-82.9260,1016.7,1111122 
COMPS,ioos:station:USF.COMPS:C10:1,2010-12-05T07:00:00Z,27.1690,-82.9260,1016.7,1111122 
COMPS,ioos:station:USF.COMPS:C10:1,2010-12-05T07:20:00Z,27.1690,-82.9260,1016.7,1111122 
COMPS,ioos:station:USF.COMPS:C10:1,2010-12-05T07:40:00Z,27.1690,-82.9260,1016.6,1111122 
COMPS,ioos:station:USF.COMPS:C10:1,2010-12-05T08:00:00Z,27.1690,-82.9260,1016.6,1111122 
COMPS,ioos:station:USF.COMPS:C10:1,2010-12-05T08:20:00Z,27.1690,-82.9260,1016.4,1111122 
COMPS,ioos:station:USF.COMPS:C10:1,2010-12-05T08:40:00Z,27.1690,-82.9260,1016.3,1111122 
COMPS,ioos:station:USF.COMPS:C10:1,2010-12-05T09:00:00Z,27.1690,-82.9260,1016.3,1111122 
COMPS,ioos:station:USF.COMPS:C10:1,2010-12-05T09:20:00Z,27.1690,-82.9260,1016.2,1111122 
COMPS,ioos:station:USF.COMPS:C10:1,2010-12-05T09:40:00Z,27.1690,-82.9260,1016.2,1111122 
COMPS,ioos:station:USF.COMPS:C10:1,2010-12-05T10:00:00Z,27.1690,-82.9260,1016.2,1111122 
COMPS,ioos:station:USF.COMPS:C10:1,2010-12-05T10:20:00Z,27.1690,-82.9260,1016.3,1111122 
COMPS,ioos:station:USF.COMPS:C10:1,2010-12-05T10:40:00Z,27.1690,-82.9260,1016.2,1111122 
COMPS,ioos:station:USF.COMPS:C10:1,2010-12-05T11:00:00Z,27.1690,-82.9260,1016.2,1111122 
COMPS,ioos:station:USF.COMPS:C10:1,2010-12-05T11:20:00Z,27.1690,-82.9260,1016.4,1111122 
COMPS,ioos:station:USF.COMPS:C10:1,2010-12-05T11:40:00Z,27.1690,-82.9260,1016.5,1111122 
COMPS,ioos:station:USF.COMPS:C10:1,2010-12-05T12:00:00Z,27.1690,-82.9260,1016.5,1111122 
COMPS,ioos:station:USF.COMPS:C10:1,2010-12-05T12:20:00Z,27.1690,-82.9260,1016.7,1111122 
COMPS,ioos:station:USF.COMPS:C10:1,2010-12-05T12:40:00Z,27.1690,-82.9260,1017.0,1111122 
COMPS,ioos:station:USF.COMPS:C10:1,2010-12-05T13:00:00Z,27.1690,-82.9260,1017.0,1111122 
COMPS,ioos:station:USF.COMPS:C10:1,2010-12-05T13:20:00Z,27.1690,-82.9260,1017.0,1111122 
COMPS,ioos:station:USF.COMPS:C10:1,2010-12-05T13:40:00Z,27.1690,-82.9260,1017.0,1111122 